GFSFLT1_925_rhum_234.txt.gz
RH
27 31 31 32 30 37 44 79 93 95 99 99 99 96 98 99 99 100 100 100 100 100 100 100 100 95 83 67 56 72 64 63
32 31 32 32 29 30 38 72 88 98 98 98 100 100 95 99 97 100 100 100 100 100 100 100 100 98 95 83 69 74 78 69
38 35 34 32 33 32 34 59 82 96 92 93 91 93 94 96 93 97 100 100 100 100 100 100 99 100 100 89 75 81 80 72
33 31 32 31 34 34 35 43 76 90 88 89 87 92 95 98 99 100 100 100 100 100 100 100 100 99 100 98 84 66 71 87
34 33 32 33 35 34 35 37 62 87 91 85 85 86 88 92 97 97 99 99 100 100 100 100 99 100 100 98 88 70 66 84
37 35 33 33 36 34 32 46 68 88 94 85 83 82 81 83 91 93 100 100 99 100 100 100 100 100 100 100 96 80 66 68
75 60 76 80 73 53 40 67 82 95 95 90 84 83 84 86 92 94 95 100 100 100 100 100 100 100 100 99 96 86 78 67
71 72 73 74 86 91 65 83 86 97 95 92 88 85 84 84 90 88 96 100 100 100 100 100 100 100 100 100 100 92 84 75
62 64 68 71 73 81 94 98 98 97 96 94 92 88 87 86 89 89 96 96 95 100 100 100 100 100 100 100 100 98 91 82
51 49 51 57 66 72 79 89 99 100 100 93 94 93 94 94 94 94 95 100 100 99 100 100 100 100 100 100 100 100 99 89
60 59 58 54 57 63 70 77 88 98 100 100 100 100 100 99 100 90 93 81 86 99 99 99 100 100 99 100 100 100 100 97
81 68 60 59 54 56 57 62 73 84 92 100 100 100 100 99 100 100 100 99 100 90 91 94 99 100 100 100 100 100 100 100
92 86 76 72 65 55 58 58 58 68 78 84 94 100 100 100 100 100 100 100 100 100 100 100 100 100 99 100 100 100 100 100
92 94 94 88 83 73 65 62 57 55 57 69 67 65 87 100 96 92 86 88 91 97 100 100 100 100 100 100 98 98 98 99
98 94 91 90 89 84 80 73 62 56 52 51 59 57 47 54 78 86 88 81 73 70 77 90 93 98 99 100 100 100 100 95
93 95 89 87 88 88 86 77 74 69 62 58 55 43 39 46 48 61 61 68 75 74 68 74 92 89 90 99 99 100 100 100
66 70 76 81 85 89 88 84 75 67 67 63 60 55 48 43 41 46 46 62 71 73 75 66 70 72 76 77 86 99 100 100
54 58 59 69 73 78 84 80 77 72 68 69 66 60 56 51 44 40 39 46 58 55 61 58 53 57 61 66 65 74 83 98
59 64 69 72 73 72 68 74 80 82 79 74 67 67 64 57 54 52 50 43 43 58 58 52 50 45 45 48 63 69 71 76

GFSFLT1_925_rhum_240.txt.gz
RH
20 21 20 22 23 26 26 40 68 80 89 94 98 96 90 79 71 68 75 80 75 76 66 73 98 91 86 75 83 78 60 60
23 24 23 23 24 24 25 29 60 76 89 95 99 97 95 85 77 72 72 82 79 80 69 89 99 94 93 78 84 81 69 61
24 24 26 26 24 29 27 27 46 70 83 86 92 92 93 94 83 76 74 84 84 84 82 97 98 99 83 74 69 70 60 61
20 21 25 26 26 27 30 28 36 61 71 78 84 83 88 94 89 83 83 84 90 89 92 99 99 96 85 71 73 68 62 62
14 19 21 23 26 27 30 30 33 56 74 68 83 82 84 84 88 91 89 88 93 94 97 100 97 99 84 81 73 74 62 66
41 28 23 21 24 26 32 32 32 47 69 61 67 74 76 75 80 87 91 95 98 99 100 99 99 96 80 83 90 84 68 59
48 46 48 46 49 48 35 37 34 38 59 70 68 72 70 71 73 80 91 96 100 100 100 100 100 97 96 96 93 90 75 63
60 59 58 63 66 67 60 42 37 36 48 59 62 62 71 67 66 74 81 93 100 100 100 100 100 100 96 97 98 95 84 71
80 72 69 71 85 91 82 74 45 38 40 51 57 62 64 70 66 70 77 87 96 100 100 100 100 100 100 100 99 96 94 83
94 84 83 79 81 89 93 97 98 98 89 52 57 65 69 72 72 74 78 86 94 100 100 100 100 100 100 100 100 100 97 94
95 95 91 88 89 90 88 89 95 98 100 99 94 78 76 78 78 78 81 90 98 100 100 100 100 100 100 100 100 100 100 99
98 97 96 96 92 91 93 91 91 94 96 99 100 100 99 99 93 86 84 90 98 100 100 100 100 100 100 100 100 100 100 100
100 96 92 96 96 95 95 95 94 95 94 94 96 98 100 100 100 100 100 100 98 98 100 100 100 100 100 100 100 100 100 100
97 96 93 89 91 96 96 96 98 97 96 94 94 94 94 100 100 100 100 100 100 100 100 100 100 100 100 100 100 100 100 100
85 89 93 95 92 93 91 94 96 96 96 98 99 99 96 94 94 96 88 97 100 100 100 100 100 100 100 100 100 100 100 100
71 81 88 91 94 95 94 92 95 97 95 97 99 99 100 92 81 79 81 90 90 94 99 99 100 100 100 98 100 100 100 100
59 60 68 89 90 92 95 97 97 95 97 98 98 97 92 97 89 82 71 75 77 86 88 87 94 95 98 97 96 100 100 100
54 56 58 74 93 90 90 98 94 96 94 95 97 96 96 96 91 86 89 74 74 74 82 98 85 85 77 86 89 98 99 100
56 58 61 66 77 86 92 88 96 91 92 89 94 94 98 94 94 94 83 91 78 79 74 75 80 90 69 77 63 74 80 90

GFSFLT1_925_rhum_243.txt.gz
RH
16 18 17 19 19 20 20 23 44 68 75 78 88 78 68 64 66 69 81 83 74 76 69 72 77 74 68 64 65 62 56 55
10 15 19 19 18 20 22 24 29 65 73 81 79 89 72 70 67 67 72 81 77 77 67 74 81 73 68 66 68 63 58 56
10 9 10 17 20 21 22 24 26 46 70 76 79 86 79 71 71 70 67 79 78 74 68 73 86 78 70 69 72 69 61 60
12 11 11 18 23 23 23 24 25 29 60 77 83 83 84 77 77 73 69 75 79 73 74 70 92 82 80 77 78 72 66 64
25 25 15 11 20 22 25 25 27 27 56 72 82 76 81 79 83 77 73 72 79 78 76 71 96 89 88 82 78 68 54 63
52 54 52 49 17 16 23 27 27 28 31 61 76 75 74 75 82 78 77 77 77 80 79 77 96 94 94 92 84 70 56 63
61 65 63 70 72 68 54 30 26 29 32 59 68 76 74 74 74 78 81 81 80 83 84 86 93 94 99 86 72 59 67 66
85 84 75 79 85 85 80 75 44 28 33 56 64 72 77 73 70 74 80 83 86 91 89 94 96 94 98 90 78 76 69 67
94 95 95 90 91 90 92 85 80 84 61 38 64 66 70 70 68 71 73 81 87 92 97 97 98 97 97 93 86 82 80 80
96 94 97 97 95 98 94 95 96 98 97 85 68 66 64 65 63 66 70 74 82 96 99 99 100 99 98 98 93 91 90 89
96 95 96 98 98 98 97 96 97 98 99 100 100 98 92 75 64 68 69 70 77 94 100 100 100 100 100 98 95 93 94 91
97 96 94 97 98 98 97 97 97 98 98 99 100 100 100 100 99 97 87 77 78 86 97 100 100 100 100 100 98 96 98 94
89 88 95 96 97 98 98 96 97 99 99 99 99 100 100 100 100 100 100 100 98 84 97 100 100 100 100 100 100 100 100 99
78 84 91 94 96 98 96 98 98 98 98 99 99 100 100 100 100 100 100 100 100 100 100 100 100 100 100 100 100 100 100 98
68 76 84 91 89 94 98 95 99 98 98 98 99 100 100 100 100 100 100 100 100 100 100 99 99 100 100 100 100 100 100 100
52 62 77 86 84 85 98 93 100 100 97 99 100 99 100 95 100 99 96 95 99 100 100 96 96 97 99 100 100 100 100 100
50 50 59 75 89 86 90 96 92 100 99 99 99 100 99 99 98 100 95 96 99 98 100 100 95 93 93 99 100 100 100 100
48 50 52 60 78 89 91 92 93 87 92 97 97 100 100 99 96 100 97 95 99 95 96 96 100 91 91 89 95 100 99 100
45 46 50 54 62 75 82 87 85 89 86 86 93 96 93 99 96 100 99 100 100 100 92 89 86 88 84 82 83 87 90 96

GFSFLT1_925_rhum_246.txt.gz
RH
9 9 9 13 16 19 20 20 29 78 87 86 86 81 77 75 77 89 90 84 83 79 80 71 68 68 66 62 65 65 65 61
10 11 11 11 12 16 18 24 20 72 88 87 87 84 78 70 72 82 88 84 82 79 78 73 72 71 66 62 67 67 65 60
48 56 52 22 15 15 19 24 25 33 70 78 78 86 77 69 68 78 84 86 82 81 78 76 75 74 69 68 70 71 67 59
56 56 64 62 63 70 57 24 21 25 65 69 72 82 75 74 67 69 82 87 84 83 76 78 80 78 74 70 71 68 65 62
67 66 71 73 74 77 77 72 48 32 28 64 68 69 74 72 74 69 75 86 86 82 78 78 86 82 76 73 74 70 64 66
88 71 81 78 85 85 86 83 72 58 46 53 69 68 66 78 75 75 73 82 84 81 81 75 87 86 76 76 78 73 64 66
93 94 83 86 88 92 91 91 86 74 61 43 64 71 64 68 79 77 82 76 86 84 79 74 86 89 81 80 80 76 70 69
94 94 95 93 92 96 93 95 95 95 90 54 78 68 68 70 76 81 80 77 80 87 82 82 85 93 87 88 88 80 71 66
95 95 96 96 96 97 97 97 97 99 100 86 80 78 69 67 72 79 81 75 76 83 86 82 82 97 95 93 94 86 75 70
95 95 96 97 98 99 99 97 98 99 100 100 98 98 92 72 69 66 79 76 78 80 88 86 85 99 100 100 98 94 84 74
83 90 96 97 98 100 100 100 99 98 99 100 100 100 100 100 92 94 95 96 94 83 90 91 91 98 100 100 99 96 90 83
89 81 82 90 95 100 100 100 99 98 99 100 100 100 100 100 100 99 99 99 97 100 90 90 92 100 100 100 99 97 92 86
82 84 84 87 93 98 100 100 98 98 99 100 100 100 100 100 100 100 99 100 99 100 100 94 87 100 100 100 99 98 96 90
68 81 86 86 92 96 100 98 99 96 98 100 99 100 100 100 100 100 100 100 100 99 100 99 100 98 100 100 99 99 98 96
59 69 84 86 87 92 100 99 100 99 97 98 99 100 100 100 98 92 100 100 100 97 100 95 96 96 100 100 100 99 99 99
51 56 67 81 84 86 96 99 100 100 98 99 100 100 100 100 99 90 89 94 94 98 94 100 97 98 96 98 100 100 99 100
44 45 50 61 84 86 89 100 99 98 100 98 99 100 97 100 100 100 92 95 90 91 93 99 100 99 98 99 100 100 100 100
40 42 47 55 67 78 84 90 98 96 97 99 96 97 97 96 100 100 99 98 99 91 95 95 98 100 95 92 99 100 99 100
38 38 43 48 57 65 68 68 81 90 91 96 97 93 94 95 99 100 99 100 99 100 99 99 93 97 96 93 92 98 96 97

GFSFLT1_925_rhum_252.txt.gz
RH
64 71 78 82 86 85 83 84 85 83 74 60 62 88 92 99 97 97 100 99 99 99 98 99 100 97 87 77 75 70 68 66
64 70 74 79 83 91 85 88 89 87 91 94 82 92 81 82 99 97 100 98 100 96 96 100 100 94 85 73 74 72 79 74
62 67 71 80 86 93 93 91 91 91 91 96 100 95 83 84 75 89 99 97 98 95 94 98 98 92 85 81 75 75 81 80
64 63 69 75 84 97 97 96 92 93 92 98 97 89 73 67 85 79 85 98 96 95 93 96 97 90 86 80 76 71 79 82
67 67 70 73 85 96 98 96 95 93 96 99 100 99 94 83 77 94 76 97 94 97 92 94 93 91 86 80 76 73 76 81
72 74 75 75 83 97 100 98 97 96 97 99 100 100 97 66 99 64 89 93 97 99 95 93 92 89 87 82 79 73 75 76
72 74 75 79 82 95 100 99 99 98 98 100 100 100 100 100 92 93 91 95 99 99 95 92 92 88 88 86 79 76 76 75
77 80 78 81 85 92 99 100 99 100 99 100 100 100 100 100 98 100 98 95 94 95 97 93 96 88 87 87 81 80 76 76
77 82 80 82 86 91 99 100 99 100 100 100 100 100 100 99 99 99 90 90 99 95 99 95 95 94 90 88 86 83 81 77
78 81 80 79 86 92 95 99 100 100 100 100 100 100 100 100 100 93 93 94 94 98 92 98 99 98 96 94 91 87 86 82
78 81 80 82 84 90 92 97 100 100 100 100 100 100 100 100 100 100 100 91 88 91 100 94 81 100 100 99 94 93 91 85
82 75 74 82 80 89 92 96 98 100 100 100 100 100 100 100 100 100 100 99 90 100 95 90 86 96 100 100 98 95 95 90
74 65 68 78 77 85 93 95 98 100 96 99 100 100 100 100 100 100 100 100 99 97 98 100 100 99 100 96 89 99 98 94
68 62 68 73 76 77 86 95 96 97 97 95 99 100 100 100 100 100 100 100 100 100 95 98 100 100 97 85 91 100 100 96
60 64 64 66 68 70 74 82 87 88 94 92 92 100 100 100 100 100 100 98 100 100 100 99 97 100 100 100 90 92 93 94
52 56 60 63 65 63 68 68 74 75 82 86 87 92 98 99 99 100 100 100 100 98 100 99 98 98 99 100 100 99 100 95
47 46 53 61 62 63 65 65 70 67 72 77 82 92 89 97 97 98 100 100 100 100 100 100 100 99 90 97 99 100 99 98
49 49 51 57 57 58 62 63 65 68 70 75 80 88 85 94 96 99 100 100 100 100 100 100 100 100 93 89 96 98 99 100
48 46 50 55 55 57 60 60 66 71 68 74 82 88 86 91 98 99 100 100 100 96 99 100 99 100 98 93 92 96 95 99

GFSFLT1_925_rhum_258.txt.gz
RH
60 64 68 73 79 80 81 88 88 95 91 88 90 93 90 73 62 85 100 99 100 100 99 98 95 97 99 100 93 86 81 90
58 64 69 75 80 81 82 84 85 89 96 97 93 96 99 100 84 62 90 100 100 100 100 100 98 98 98 100 98 90 95 89
58 64 70 76 82 80 80 84 87 87 93 97 98 99 98 100 98 96 89 92 96 100 99 100 99 98 100 100 97 92 86 89
63 65 72 74 81 85 80 82 86 90 89 95 97 98 98 97 98 100 94 89 100 90 100 100 100 99 97 97 97 85 77 92
64 66 74 76 81 86 87 84 85 90 92 95 99 99 98 97 100 100 99 93 92 81 89 93 98 100 99 99 99 86 69 85
72 68 77 76 78 89 89 88 84 89 94 97 100 99 99 99 99 100 100 100 100 97 94 66 82 92 98 100 100 92 75 72
71 68 75 75 74 79 85 89 86 88 94 98 99 100 100 99 98 99 100 100 99 100 95 90 70 90 78 98 100 96 82 64
81 79 77 74 74 79 81 87 88 90 92 95 98 100 100 100 100 100 100 100 100 98 100 88 81 81 94 85 90 99 87 72
82 72 72 74 70 70 76 87 88 90 95 95 96 99 100 100 100 100 100 100 100 100 100 100 93 70 89 90 84 99 92 81
79 68 65 62 64 65 70 77 83 85 92 93 95 98 99 100 100 100 100 100 100 100 99 99 100 86 64 64 83 97 98 87
73 63 62 56 57 63 63 70 82 87 88 95 99 98 100 100 100 100 100 100 100 100 100 99 100 100 98 98 91 86 94 92
76 59 56 55 55 57 60 65 75 79 81 89 98 99 100 100 100 100 100 100 100 100 100 99 100 100 99 93 87 74 90 98
65 55 56 58 58 58 58 59 76 78 76 86 94 98 97 100 100 100 99 100 100 100 100 100 99 100 100 98 81 80 72 85
64 55 58 64 60 60 64 67 79 79 81 81 94 95 96 100 100 100 100 100 100 100 100 100 100 100 100 100 99 82 62 74
65 62 60 63 58 55 65 72 73 78 83 85 97 92 95 97 100 100 100 100 98 95 99 100 100 100 100 100 100 100 100 97
60 64 62 62 56 55 61 69 72 76 80 89 97 89 94 98 97 99 100 100 100 99 98 95 99 100 100 100 100 100 100 98
57 54 59 60 54 58 62 65 66 73 79 82 94 95 94 96 96 96 98 98 96 94 92 97 98 100 96 100 100 100 100 100
58 55 62 56 52 59 64 66 68 77 85 87 92 98 89 93 92 94 98 98 96 97 97 94 99 96 95 92 99 98 100 100
54 55 58 51 54 61 65 71 79 84 89 93 87 88 84 88 90 94 94 99 98 98 95 94 98 89 90 88 88 94 100 97

GFSFLT1_925_rhum_261.txt.gz
RH
47 53 59 62 68 76 71 78 84 86 87 87 86 88 86 87 90 92 92 94 99 99 98 98 97 98 100 100 99 93 84 87
46 51 56 60 65 74 75 75 83 85 89 88 89 92 92 90 93 97 97 93 89 99 100 100 100 94 98 99 100 97 84 88
48 49 56 61 64 74 76 77 77 85 91 92 93 89 89 93 91 93 95 96 89 83 96 99 100 99 100 100 100 96 87 90
50 51 56 60 63 73 75 76 75 79 90 94 95 96 90 86 93 91 94 95 97 96 93 92 100 100 100 100 100 95 89 91
50 52 54 59 64 70 74 76 72 75 84 93 98 98 96 96 94 96 96 99 97 94 97 99 90 96 100 100 100 98 87 84
53 54 56 56 60 63 71 72 71 78 81 86 96 97 98 100 96 95 97 97 99 100 99 100 99 83 95 98 99 100 93 77
51 56 55 53 57 61 67 67 66 73 80 81 88 97 99 99 100 98 97 98 98 100 98 98 99 100 87 97 92 100 100 85
54 56 57 57 60 64 64 66 64 68 78 81 85 88 97 100 100 100 99 100 99 99 98 99 98 98 100 90 99 95 93 100
51 56 62 62 62 68 68 64 65 70 74 82 90 86 93 100 100 100 100 100 100 98 99 98 99 98 99 100 100 99 94 90
55 55 60 64 63 66 69 70 71 73 71 81 89 90 90 98 99 100 100 100 100 98 99 100 98 98 99 100 100 100 99 95
55 55 56 65 65 68 67 66 69 70 72 80 90 86 88 98 99 99 100 100 100 96 96 100 100 98 99 100 100 98 96 92
59 57 56 65 64 63 65 67 68 71 78 86 85 85 88 91 94 98 99 100 100 100 89 100 100 100 100 100 100 98 98 97
57 54 56 62 62 61 62 66 67 71 77 80 84 88 89 87 92 97 93 100 100 100 99 99 100 100 100 100 99 99 96 95
50 52 56 62 62 58 62 65 67 70 74 77 84 86 94 87 93 97 97 99 100 100 100 100 100 100 100 100 100 99 98 92
48 50 53 63 60 58 63 66 69 71 74 78 90 98 94 88 92 96 99 98 100 100 100 100 100 100 100 100 100 99 100 97
45 48 51 61 55 58 64 68 71 72 76 78 89 91 84 82 89 95 96 97 100 100 99 100 99 100 100 100 99 99 100 100
44 47 49 59 55 60 69 72 73 75 77 82 86 85 79 82 86 93 94 96 97 98 99 100 99 100 97 94 96 98 100 100
46 48 56 54 57 67 73 74 73 79 80 89 81 80 78 78 79 87 93 97 97 99 98 99 100 100 99 96 96 98 99 100
50 52 56 56 63 72 74 74 76 78 79 84 77 76 72 76 80 88 92 98 98 99 99 99 99 99 99 96 96 98 99 100